User: anonymous
Location: Oshawa
(43.9000°N, 78.8670°W)
Time: 08:11:25
(UTC-04:00)
Language:

Cosmos 1500 - Orbit

View from above orbital plane
View from above orbital plane
View from above satellite
View from above satellite

Ground track
Ground track

The orbit data is extracted from the following two-line orbital elements,

1 14372U 83099A   14241.49769490  .00002378  00000-0  13778-3 0  6150
2 14372 082.5167 271.1307 0018183 035.9882 078.1246 15.11617451682900
Epoch (UTC): 29 August 2014 11:56:40
Eccentricity: 0.0018183
inclination: 82.5167°
perigee height: 519 km
apogee height: 544 km
right ascension of ascending node: 271.1307°
argument of perigee: 35.9882°
revolutions per day: 15.11617451
mean anomaly at epoch: 78.1246°
orbit number at epoch: 68290

The dashed part of the orbit path shows where the satellite is in the earth's shadow,  

DLR